H1 CPF 2 NER 2021 10 6 9 279 01 glonass127 H2 1106403 9127 37869 2021 10 6 0 0 0 2021 10 9 23 45 0 900 1 1 0 0 0 1 H9 10 0 59493 0.00000 0 9872001.200 4685795.580 -23000613.464 10 0 59493 900.00000 0 8710612.777 7275077.422 -22798260.577 10 0 59493 1800.00000 0 7758697.761 9892404.721 -22151025.716 10 0 59493 2700.00000 0 7030013.893 12469527.190 -21071690.630 10 0 59493 3600.00000 0 6525924.994 14937866.999 -19581484.780 10 0 59493 4500.00000 0 6235514.399 17231191.939 -17709653.505 10 0 59493 5400.00000 0 6136232.555 19288197.977 -15492867.967 10 0 59493 6300.00000 0 6195048.915 21054893.071 -12974489.750 10 0 59493 7200.00000 0 6370056.828 22486682.784 -10203706.029 10 0 59493 8100.00000 0 6612460.986 23550071.492 -7234553.648 10 0 59493 9000.00000 0 6868861.076 24223909.489 -4124852.480 10 0 59493 9900.00000 0 7083733.182 24500135.865 -935070.215 10 0 59493 10800.00000 0 7202002.683 24383988.534 2272858.464 10 0 59493 11700.00000 0 7171599.173 23893675.281 5436734.687 10 0 59493 12600.00000 0 6945885.435 23059522.229 8495296.605 10 0 59493 13500.00000 0 6485858.379 21922637.774 11389395.992 10 0 59493 14400.00000 0 5762030.088 20533149.753 14063128.232 10 0 59493 15300.00000 0 4755910.875 18948090.815 16464895.003 10 0 59493 16200.00000 0 3461033.133 17229020.796 18548380.743 10 0 59493 17100.00000 0 1883473.860 15439485.008 20273426.002 10 0 59493 18000.00000 0 41854.379 13642413.398 21606782.750 10 0 59493 18900.00000 0 -2033182.922 11897567.300 22522739.108 10 0 59493 19800.00000 0 -4300000.030 10259137.995 23003603.222 10 0 59493 20700.00000 0 -6707449.750 8773594.894 23040038.230 10 0 59493 21600.00000 0 -9196763.681 7477870.770 22631242.732 10 0 59493 22500.00000 0 -11703765.981 6397957.803 21784973.401 10 0 59493 23400.00000 0 -14161323.914 5547971.759 20517408.817 10 0 59493 24300.00000 0 -16501936.346 4929722.700 18852855.983 10 0 59493 25200.00000 0 -18660355.294 4532810.286 16823303.473 10 0 59493 26100.00000 0 -20576133.539 4335240.426 14467827.780 10 0 59493 27000.00000 0 -22195993.616 4304538.623 11831862.013 10 0 59493 27900.00000 0 -23475919.941 4399314.759 8966338.771 10 0 59493 28800.00000 0 -24382886.306 4571214.969 5926721.770 10 0 59493 29700.00000 0 -24896145.415 4767179.544 2771943.308 10 0 59493 30600.00000 0 -25008024.723 4931912.277 -436732.992 10 0 59493 31500.00000 0 -24724193.084 5010456.910 -3636902.422 10 0 59493 32400.00000 0 -24063384.887 4950770.933 -6766239.196 10 0 59493 33300.00000 0 -23056591.280 4706186.240 -9763721.658 10 0 59493 34200.00000 0 -21745750.985 4237650.270 -12570837.471 10 0 59493 35100.00000 0 -20181994.834 3515650.019 -15132743.669 10 0 59493 36000.00000 0 -18423517.638 2521734.501 -17399357.086 10 0 59493 36900.00000 0 -16533167.352 1249568.264 -19326351.928 10 0 59493 37800.00000 0 -14575853.918 -294531.342 -20876043.297 10 0 59493 38700.00000 0 -12615888.027 -2091598.278 -22018137.934 10 0 59493 39600.00000 0 -10714363.220 -4110564.901 -22730336.287 10 0 59493 40500.00000 0 -8926692.680 -6309330.223 -22998773.459 10 0 59493 41400.00000 0 -7300405.250 -8636305.022 -22818290.082 10 0 59493 42300.00000 0 -5873293.853 -11032368.792 -22192527.863 10 0 59493 43200.00000 0 -4671993.950 -13433155.999 -21133848.430 10 0 59493 44100.00000 0 -3711050.970 -15771574.995 -19663077.818 10 0 59493 45000.00000 0 -2992514.386 -17980453.085 -17809082.626 10 0 59493 45900.00000 0 -2506073.370 -19995196.177 -15608187.405 10 0 59493 46800.00000 0 -2229725.653 -21756351.104 -13103446.032 10 0 59493 47700.00000 0 -2130948.500 -23211963.125 -10343782.792 10 0 59493 48600.00000 0 -2168319.420 -24319630.343 -7383021.447 10 0 59493 49500.00000 0 -2293515.350 -25048169.961 -4278822.549 10 0 59493 50400.00000 0 -2453603.444 -25378828.085 -1091551.055 10 0 59493 51300.00000 0 -2593524.741 -25305984.425 2116902.764 10 0 59493 52200.00000 0 -2658664.495 -24837324.670 5284325.599 10 0 59493 53100.00000 0 -2597400.031 -23993475.719 8349382.892 10 0 59493 54000.00000 0 -2363518.645 -22807121.336 11252797.126 10 0 59493 54900.00000 0 -1918404.155 -21321637.126 13938480.558 10 0 59493 55800.00000 0 -1232901.066 -19589303.302 16354601.616 10 0 59493 56700.00000 0 -288779.020 -17669170.506 18454565.980 10 0 59493 57600.00000 0 920262.886 -15624667.612 20197895.326 10 0 59493 58500.00000 0 2388093.283 -13521050.347 21550988.735 10 0 59493 59400.00000 0 4096168.062 -11422795.376 22487754.106 10 0 59493 60300.00000 0 6014071.972 -9391046.188 22990099.167 10 0 59493 61200.00000 0 8100560.828 -7481214.671 23048273.931 10 0 59493 62100.00000 0 10305062.842 -5740835.693 22661058.868 10 0 59493 63000.00000 0 12569579.099 -4207761.684 21835795.315 10 0 59493 63900.00000 0 14830906.870 -2908770.704 20588257.072 10 0 59493 64800.00000 0 17023096.278 -1858644.753 18942364.523 10 0 59493 65700.00000 0 19080040.880 -1059756.332 16929745.107 10 0 59493 66600.00000 0 20938096.588 -502180.760 14589146.573 10 0 59493 67500.00000 0 22538621.487 -164330.323 11965712.052 10 0 59493 68400.00000 0 23830331.399 -14084.810 9110128.653 10 0 59493 69300.00000 0 24771372.698 -10372.318 6077664.038 10 0 59493 70200.00000 0 25331024.734 -105134.982 2927107.951 10 0 59493 71100.00000 0 25490958.932 -245597.603 -280361.945 10 0 59493 72000.00000 0 25245999.548 -376743.717 -3482368.303 10 0 59493 72900.00000 0 24604351.785 -443894.004 -6616553.213 10 0 59493 73800.00000 0 23587285.299 -395276.817 -9621803.724 10 0 59493 74700.00000 0 22228284.361 -184480.178 -12439458.563 10 0 59493 75600.00000 0 20571698.881 227320.971 -15014470.911 10 0 59493 76500.00000 0 18670952.109 869459.349 -17296502.742 10 0 59493 77400.00000 0 16586380.202 1760275.235 -19240927.390 10 0 59493 78300.00000 0 14382794.903 2906087.995 -20809719.049 10 0 59493 79200.00000 0 12126872.598 4300685.154 -21972210.344 10 0 59493 80100.00000 0 9884480.705 5925352.614 -22705701.915 10 0 59493 81000.00000 0 7718054.851 7749446.163 -22995911.420 10 0 59493 81900.00000 0 5684137.966 9731481.039 -22837252.787 10 0 59493 82800.00000 0 3831185.310 11820693.829 -22232940.326 10 0 59493 83700.00000 0 2197727.593 13959010.738 -21194916.119 10 0 59493 84600.00000 0 810968.694 16083338.830 -19743602.849 10 0 59493 85500.00000 0 -314124.394 18128083.046 -17907487.944 10 0 59494 0.00000 0 -1175203.090 20027782.241 -15722548.636 10 0 59494 900.00000 0 -1782377.196 21719753.829 -13231529.277 10 0 59494 1800.00000 0 -2157521.858 23146632.996 -10483089.571 10 0 59494 2700.00000 0 -2333085.464 24258703.355 -7530837.892 10 0 59494 3600.00000 0 -2350450.687 25015919.150 -4432272.802 10 0 59494 4500.00000 0 -2257921.185 25389536.234 -1247653.568 10 0 59494 5400.00000 0 -2108421.330 25363284.788 1961177.137 10 0 59494 6300.00000 0 -1957007.902 24934036.494 5131994.874 10 0 59494 7200.00000 0 -1858299.895 24111940.312 8203395.727 10 0 59494 8100.00000 0 -1863935.309 22920023.283 11115976.201 10 0 59494 9000.00000 0 -2020161.911 21393274.906 13813468.636 10 0 59494 9900.00000 0 -2365662.634 19577254.823 16243811.244 10 0 59494 10800.00000 0 -2929706.024 17526282.723 18360133.764 10 0 59494 11700.00000 0 -3730698.247 15301286.013 20121641.571 10 0 59494 12600.00000 0 -4775196.337 12967394.246 21494383.141 10 0 59494 13500.00000 0 -6057423.416 10591378.949 22451888.107 10 0 59494 14400.00000 0 -7559306.131 8239043.271 22975665.360 10 0 59494 15300.00000 0 -9251033.383 5972667.518 23055552.947 10 0 59494 16200.00000 0 -11092114.452 3848614.090 22689913.896 10 0 59494 17100.00000 0 -13032894.473 1915188.810 21885674.378 10 0 59494 18000.00000 0 -15016466.637 210845.433 20658203.034 10 0 59494 18900.00000 0 -16980904.274 -1237193.616 19031032.697 10 0 59494 19800.00000 0 -18861722.661 -2413843.810 17035428.191 10 0 59494 20700.00000 0 -20594470.332 -3316554.789 14709806.543 10 0 59494 21600.00000 0 -22117343.772 -3955179.438 12099018.499 10 0 59494 22500.00000 0 -23373717.439 -4351320.380 9253502.918 10 0 59494 23400.00000 0 -24314483.567 -4537180.090 6228328.407 10 0 59494 24300.00000 0 -24900103.163 -4553961.798 3082138.997 10 0 59494 25200.00000 0 -25102280.779 -4449887.505 -123976.845 10 0 59494 26100.00000 0 -24905190.618 -4277916.114 -3327672.372 10 0 59494 27000.00000 0 -24306199.992 -4093258.135 -6466560.743 10 0 59494 27900.00000 0 -23316057.019 -3950792.769 -9479440.828 10 0 59494 28800.00000 0 -21958532.209 -3902498.076 -12307505.412 10 0 59494 29700.00000 0 -20269526.896 -3995005.045 -14895506.655 10 0 59494 30600.00000 0 -18295684.448 -4267381.603 -17192854.261 10 0 59494 31500.00000 0 -16092561.884 -4749243.041 -19154622.958 10 0 59494 32400.00000 0 -13722438.492 -5459271.505 -20742447.890 10 0 59494 33300.00000 0 -11251853.907 -6404209.679 -21925288.932 10 0 59494 34200.00000 0 -8748979.875 -7578373.229 -22680047.754 10 0 59494 35100.00000 0 -6280936.967 -8963704.155 -22992024.842 10 0 59494 36000.00000 0 -3911169.782 -10530363.763 -22855207.170 10 0 59494 36900.00000 0 -1696991.498 -12237840.565 -22272380.916 10 0 59494 37800.00000 0 312599.024 -14036526.217 -21255067.463 10 0 59494 38700.00000 0 2078736.381 -15869692.521 -19823284.648 10 0 59494 39600.00000 0 3574068.620 -17675785.257 -18005138.962 10 0 59494 40500.00000 0 4783641.913 -19390937.295 -15836257.917 10 0 59494 41400.00000 0 5705255.103 -20951594.271 -13359075.000 10 0 59494 42300.00000 0 6349272.024 -22297141.547 -10621982.733 10 0 59494 43200.00000 0 6737902.706 -23372421.628 -7678371.816 10 0 59494 44100.00000 0 6903987.074 -24130036.220 -4585576.495 10 0 59494 45000.00000 0 6889335.532 -24532336.728 -1403748.036 10 0 59494 45900.00000 0 6742699.307 -24553020.661 1805320.780 10 0 59494 46800.00000 0 6517458.471 -24178268.376 4979396.630 10 0 59494 47700.00000 0 6269126.776 -23407374.230 8057008.431 10 0 59494 48600.00000 0 6052779.449 -22252847.582 10978628.832 10 0 59494 49500.00000 0 5920512.505 -20739981.109 13687812.273 10 0 59494 50400.00000 0 5919040.040 -18905905.952 16132268.666 10 0 59494 51300.00000 0 6087529.623 -16798174.018 18264853.566 10 0 59494 52200.00000 0 6455765.463 -14472926.759 20044457.613 10 0 59494 53100.00000 0 7042715.137 -11992726.220 21436780.021 10 0 59494 54000.00000 0 7855558.920 -9424137.267 22414973.236 10 0 59494 54900.00000 0 8889221.769 -6835159.532 22960148.125 10 0 59494 55800.00000 0 10126427.580 -4292613.352 23061731.297 10 0 59494 56700.00000 0 11538274.234 -1859585.478 22717668.587 10 0 59494 57600.00000 0 13085306.957 406962.135 21934470.996 10 0 59494 58500.00000 0 14719047.285 2458323.597 20727101.759 10 0 59494 59400.00000 0 16383916.375 4255833.878 19118705.686 10 0 59494 60300.00000 0 18019475.137 5772234.321 17140184.302 10 0 59494 61200.00000 0 19562890.153 6992562.582 14829623.004 10 0 59494 62100.00000 0 20951524.521 7914529.937 12231579.015 10 0 59494 63000.00000 0 22125546.783 8548369.569 9396241.568 10 0 59494 63900.00000 0 23030449.280 8916161.148 6378478.567 10 0 59494 64800.00000 0 23619370.174 9050658.903 3236786.432 10 0 59494 65700.00000 0 23855120.494 8993671.339 32162.288 10 0 59494 66600.00000 0 23711829.133 8794060.032 -3173080.059 10 0 59494 67500.00000 0 23176134.162 8505441.633 -6316527.334 10 0 59494 68400.00000 0 22247867.507 8183690.490 -9336892.784 10 0 59494 69300.00000 0 20940201.390 7884348.452 -12175225.799 10 0 59494 70200.00000 0 19279247.767 7660053.080 -14776079.991 10 0 59494 71100.00000 0 17303125.503 7558095.210 -17088615.156 10 0 59494 72000.00000 0 15060533.040 7618211.668 -19067609.642 10 0 59494 72900.00000 0 12608885.741 7870709.048 -20674361.632 10 0 59494 73800.00000 0 10012095.931 8335000.341 -21877460.202 10 0 59494 74700.00000 0 7338089.282 9018618.304 -22653409.842 10 0 59494 75600.00000 0 4656162.374 9916748.865 -22987095.479 10 0 59494 76500.00000 0 2034293.082 11012305.284 -22872078.490 10 0 59494 77400.00000 0 -463482.652 12276540.292 -22310717.970 10 0 59494 78300.00000 0 -2779517.357 13670170.224 -21314115.266 10 0 59494 79200.00000 0 -4864719.377 15144963.053 -19901883.598 10 0 59494 80100.00000 0 -6680350.812 16645722.320 -18101748.284 10 0 59494 81000.00000 0 -8199381.980 18112582.103 -15948986.611 10 0 59494 81900.00000 0 -9407347.644 19483515.069 -13485719.652 10 0 59494 82800.00000 0 -10302671.534 20696946.781 -10760071.350 10 0 59494 83700.00000 0 -10896448.621 21694365.305 -7825212.792 10 0 59494 84600.00000 0 -11211697.618 22422815.867 -4738311.655 10 0 59494 85500.00000 0 -11282118.434 22837175.537 -1559408.683 10 0 59495 0.00000 0 -11150410.122 22902112.914 1649755.665 10 0 59495 900.00000 0 -10866222.790 22593651.374 4826942.653 10 0 59495 1800.00000 0 -10483832.051 21900271.641 7910616.735 10 0 59495 2700.00000 0 -10059635.212 20823509.110 10841129.768 10 0 59495 3600.00000 0 -9649575.317 19378022.309 13561861.363 10 0 59495 4500.00000 0 -9306601.287 17591131.088 16020296.157 10 0 59495 5400.00000 0 -9078270.182 15501844.792 18169018.449 10 0 59495 6300.00000 0 -9004591.067 13159421.213 19966606.912 10 0 59495 7200.00000 0 -9116199.493 10621516.067 21378414.047 10 0 59495 8100.00000 0 -9432937.728 7951998.869 22377217.380 10 0 59495 9000.00000 0 -9962899.092 5218524.066 22943731.659 10 0 59495 9900.00000 0 -10701975.803 2489956.036 23066973.542 10 0 59495 10800.00000 0 -11633929.343 -166248.005 22744472.678 10 0 59495 11700.00000 0 -12730981.254 -2686591.497 21982325.352 10 0 59495 12600.00000 0 -13954901.195 -5013925.098 20795089.284 10 0 59495 13500.00000 0 -15258548.915 -7099569.631 19205520.548 10 0 59495 14400.00000 0 -16587808.116 -8905088.964 17244156.079 10 0 59495 15300.00000 0 -17883833.856 -10403640.048 14948747.816 10 0 59495 16200.00000 0 -19085521.677 -11580844.235 12363557.147 10 0 59495 17100.00000 0 -20132096.827 -12435143.175 9538520.978 10 0 59495 18000.00000 0 -20965716.018 -12977623.493 6528303.510 10 0 59495 18900.00000 0 -21533972.646 -13231316.460 3391250.344 10 0 59495 19800.00000 0 -21792199.464 -13230000.844 188263.941 10 0 59495 20700.00000 0 -21705470.211 -13016558.196 -3018378.214 10 0 59495 21600.00000 0 -21250213.633 -12640949.263 -6166239.763 10 0 59495 22500.00000 0 -20415369.122 -12157896.820 -9193951.635 10 0 59495 23400.00000 0 -19203032.310 -11624373.309 -12042423.012 10 0 59495 24300.00000 0 -17628560.478 -11097000.710 -14656011.984 10 0 59495 25200.00000 0 -15720130.755 -10629474.309 -16983631.218 10 0 59495 26100.00000 0 -13517767.648 -10270121.453 -18979765.128 10 0 59495 27000.00000 0 -11071879.382 -10059700.844 -20605376.955 10 0 59495 27900.00000 0 -8441363.730 -10029537.694 -21828686.486 10 0 59495 28800.00000 0 -5691362.820 -10200075.539 -22625801.978 10 0 59495 29700.00000 0 -2890761.392 -10579907.525 -22981193.139 10 0 59495 30600.00000 0 -109533.978 -11165329.049 -22887995.537 10 0 59495 31500.00000 0 2583947.051 -11940431.080 -22348140.446 10 0 59495 32400.00000 0 5125529.288 -12877729.992 -21372307.994 10 0 59495 33300.00000 0 7457714.126 -13939306.603 -19979705.233 10 0 59495 34200.00000 0 9531804.866 -15078405.148 -18197674.457 10 0 59495 35100.00000 0 11309680.056 -16241423.289 -16061140.634 10 0 59495 36000.00000 0 12765119.282 -17370207.638 -13611910.110 10 0 59495 36900.00000 0 13884627.902 -18404556.458 -10897835.768 10 0 59495 37800.00000 0 14667728.913 -19284822.733 -7971866.442 10 0 59495 38700.00000 0 15126712.783 -19954506.954 -4891000.504 10 0 59495 39600.00000 0 15285859.017 -20362729.911 -1715165.374 10 0 59495 40500.00000 0 15180165.513 -20466481.428 1493954.202 10 0 59495 41400.00000 0 14853642.134 -20232550.956 4674115.658 10 0 59495 42300.00000 0 14357242.775 -19639059.859 7763722.195 10 0 59495 43200.00000 0 13746524.796 -18676532.318 10703007.312 10 0 59495 44100.00000 0 13079135.317 -17348461.305 13435178.009 10 0 59495 45000.00000 0 12412230.305 -15671347.231 15907495.588 10 0 59495 45900.00000 0 11799934.414 -13674208.602 18072274.741 10 0 59495 46800.00000 0 11290947.081 -11397585.529 19887783.511 10 0 59495 47700.00000 0 10926393.788 -8892077.470 21319028.688 10 0 59495 48600.00000 0 10738010.878 -6216475.135 22338413.548 10 0 59495 49500.00000 0 10746738.394 -3435562.481 22926257.052 10 0 59495 50400.00000 0 10961778.638 -617677.934 23071165.908 10 0 59495 51300.00000 0 11380159.256 2167866.773 22770253.250 10 0 59495 52200.00000 0 11986819.215 4853406.017 22029200.039 10 0 59495 53100.00000 0 12755214.932 7375472.102 20862157.586 10 0 59495 54000.00000 0 13648422.715 9677176.276 19291492.107 10 0 59495 54900.00000 0 14620693.401 11710322.114 17347374.609 10 0 59495 55800.00000 0 15619396.381 13437164.753 15067222.042 10 0 59495 56700.00000 0 16587273.766 14831743.429 12494998.259 10 0 59495 57600.00000 0 17464912.108 15880731.625 9680385.972 10 0 59495 58500.00000 0 18193329.184 16583768.600 6677843.662 10 0 59495 59400.00000 0 18716567.697 16953257.248 3545563.962 10 0 59495 60300.00000 0 18984186.427 17013635.462 344352.423 10 0 59495 61200.00000 0 18953542.687 16800150.273 -2863552.085 10 0 59495 62100.00000 0 18591767.900 16357185.364 -6015692.423 10 0 59495 63000.00000 0 17877350.317 15736211.932 -9050619.426 10 0 59495 63900.00000 0 16801255.193 14993449.413 -11909104.183 10 0 59495 64800.00000 0 15367532.015 14187335.585 -14535311.209 10 0 59495 65700.00000 0 13593380.250 13375914.203 -16877907.818 10 0 59495 66600.00000 0 11508668.340 12614252.372 -18891086.100 10 0 59495 67500.00000 0 9154924.162 11951998.778 -20535475.812 10 0 59495 68400.00000 0 6583838.078 11431188.087 -21778928.779 10 0 59495 69300.00000 0 3855340.823 11084386.147 -22597158.215 10 0 59495 70200.00000 0 1035336.817 10933255.889 -22974219.670 10 0 59495 71100.00000 0 -1806811.797 10987605.479 -22902823.753 10 0 59495 72000.00000 0 -4600944.229 11244959.335 -22384474.509 10 0 59495 72900.00000 0 -7278791.349 11690669.853 -21429431.118 10 0 59495 73800.00000 0 -9776584.143 12298564.346 -20056494.351 10 0 59495 74700.00000 0 -12037470.956 13032098.526 -18292622.959 10 0 59495 75600.00000 0 -14013642.824 13845966.192 -16172388.678 10 0 59495 76500.00000 0 -15668078.901 14688095.311 -13737281.853 10 0 59495 77400.00000 0 -16975840.486 15501944.357 -11034882.734 10 0 59495 78300.00000 0 -17924861.676 16229000.271 -8117916.087 10 0 59495 79200.00000 0 -18516206.249 16811371.259 -5043208.966 10 0 59495 80100.00000 0 -18763783.037 17194364.073 -1870573.308 10 0 59495 81000.00000 0 -18693534.967 17328936.695 1338363.854 10 0 59495 81900.00000 0 -18342138.941 17173923.177 4521359.115 10 0 59495 82800.00000 0 -17755273.909 16697937.565 7616756.654 10 0 59495 83700.00000 0 -16985532.105 15880877.830 10564674.235 10 0 59495 84600.00000 0 -16090062.692 14714967.800 13308148.944 10 0 59495 85500.00000 0 -15128047.390 13205294.646 15794221.471 10 0 59496 0.00000 0 -14158114.013 11369820.537 17974939.412 10 0 59496 900.00000 0 -13235794.947 9238867.505 19808263.160 10 0 59496 1800.00000 0 -12411136.956 6854099.545 21258855.988 10 0 59496 2700.00000 0 -11726558.859 4267040.329 22298749.061 10 0 59496 3600.00000 0 -11215046.156 1537189.137 22907867.359 10 0 59496 4500.00000 0 -10898755.954 -1270189.727 23074409.030 10 0 59496 5400.00000 0 -10788089.321 -4086514.749 22795071.644 10 0 59496 6300.00000 0 -10881269.278 -6842473.699 22075121.263 10 0 59496 7200.00000 0 -11164442.163 -9470644.415 20928302.696 10 0 59496 8100.00000 0 -11612298.952 -11908043.987 19376591.665 10 0 59496 9000.00000 0 -12189191.981 -14098502.896 17449792.080 10 0 59496 9900.00000 0 -12850702.171 -15994767.036 15184984.243 10 0 59496 10800.00000 0 -13545593.076 -17560241.183 12625832.379 10 0 59496 11700.00000 0 -14218071.664 -18770301.389 9821762.542 10 0 59496 12600.00000 0 -14810262.347 -19613120.912 6827024.763 10 0 59496 13500.00000 0 -15264791.064 -20089974.062 3699655.768 10 0 59496 14400.00000 0 -15527370.654 -20215003.768 500361.134 10 0 59496 15300.00000 0 -15549277.739 -20014461.061 -2708662.021 10 0 59496 16200.00000 0 -15289614.987 -19525447.095 -5864938.937 10 0 59496 17100.00000 0 -14717260.894 -18794209.703 -8906943.507 10 0 59496 18000.00000 0 -13812421.923 -17874065.824 -11775311.820 10 0 59496 18900.00000 0 -12567718.331 -16823037.681 -14414017.802 10 0 59496 19800.00000 0 -10988754.714 -15701303.276 -16771486.212 10 0 59496 20700.00000 0 -9094148.368 -14568570.195 -18801619.342 10 0 59496 21600.00000 0 -6915011.828 -13481485.340 -20464715.613 10 0 59496 22500.00000 0 -4493909.514 -12491191.743 -21728260.580 10 0 59496 23400.00000 0 -1883331.230 -11641137.450 -22567573.588 10 0 59496 24300.00000 0 856253.929 -10965230.372 -22966296.641 10 0 59496 25200.00000 0 3658681.652 -10486418.009 -22916715.459 10 0 59496 26100.00000 0 6454618.245 -10215752.398 -22419906.425 10 0 59496 27000.00000 0 9174221.870 -10151979.490 -21485706.886 10 0 59496 27900.00000 0 11749827.194 -10281669.439 -20132510.062 10 0 59496 28800.00000 0 14118540.596 -10579880.882 -18386889.541 10 0 59496 29700.00000 0 16224637.354 -11011329.311 -16283061.893 10 0 59496 30600.00000 0 18021660.966 -11532008.065 -13862199.230 10 0 59496 31500.00000 0 19474137.733 -12091191.300 -11171606.637 10 0 59496 32400.00000 0 20558836.522 -12633732.192 -8263782.012 10 0 59496 33300.00000 0 21265523.195 -13102557.486 -5195378.062 10 0 59496 34200.00000 0 21597180.728 -13441251.611 -2026088.046 10 0 59496 35100.00000 0 21569688.802 -13596620.391 1182521.983 10 0 59496 36000.00000 0 21210979.331 -13521125.826 4368211.018 10 0 59496 36900.00000 0 20559706.190 -13175089.538 7469267.308 10 0 59496 37800.00000 0 19663487.397 -12528572.766 10425695.741 10 0 59496 38700.00000 0 18576795.298 -11562854.782 13180366.020 10 0 59496 39600.00000 0 17358584.271 -10271448.824 15680100.395 10 0 59496 40500.00000 0 16069755.604 -8660613.902 17876681.505 10 0 59496 41400.00000 0 14770565.120 -6749341.761 19727762.677 10 0 59496 42300.00000 0 13518080.798 -4568819.753 21197665.065 10 0 59496 43200.00000 0 12363794.945 -2161391.542 22258048.300 10 0 59496 44100.00000 0 11351488.638 420942.305 22888443.574 10 0 59496 45000.00000 0 10515435.686 3118423.275 23076640.295 10 0 59496 45900.00000 0 9879019.315 5865757.065 22818919.898 10 0 59496 46800.00000 0 9453818.117 8594569.544 22120132.632 10 0 59496 47700.00000 0 9239198.841 11235997.620 20993615.548 10 0 59496 48600.00000 0 9222433.142 13723310.426 19460952.309 10 0 59496 49500.00000 0 9379334.220 15994454.608 17551577.900 10 0 59496 50400.00000 0 9675388.045 17994419.864 15302233.915 10 0 59496 51300.00000 0 10067333.427 19677327.568 12756282.696 10 0 59496 52200.00000 0 10505126.395 21008155.939 9962891.235 10 0 59496 53100.00000 0 10934207.894 21964029.282 6976098.574 10 0 59496 54000.00000 0 11297980.461 22535016.441 3853782.934 10 0 59496 54900.00000 0 11540389.936 22724403.494 656547.277 10 0 59496 55800.00000 0 11608502.942 22548427.478 -2553455.624 10 0 59496 56700.00000 0 11454970.101 22035480.656 -5713735.879 10 0 59496 57600.00000 0 11040268.919 21224817.348 -8762692.750 10 0 59496 58500.00000 0 10334628.994 20164816.840 -11640829.413 10 0 59496 59400.00000 0 9319555.152 18910875.229 -14291931.022 10 0 59496 60300.00000 0 7988880.988 17523015.375 -16664181.328 10 0 59496 61200.00000 0 6349305.309 16063316.657 -18711194.114 10 0 59496 62100.00000 0 4420386.083 14593274.250 -20392937.533 10 0 59496 63000.00000 0 2233989.901 13171200.886 -21676531.734 10 0 59496 63900.00000 0 -166781.423 11849782.305 -22536902.871 10 0 59496 64800.00000 0 -2729142.997 10673890.873 -22957279.876 10 0 59496 65700.00000 0 -5392592.891 9678750.554 -22929523.839 10 0 59496 66600.00000 0 -8091209.415 8888531.084 -22454283.447 10 0 59496 67500.00000 0 -10756182.821 8315430.440 -21540973.853 10 0 59496 68400.00000 0 -13318474.768 7959283.415 -20207579.994 10 0 59496 69300.00000 0 -15711493.505 7807711.409 -18480289.191 10 0 59496 70200.00000 0 -17873672.403 7836805.082 -16392961.404 10 0 59496 71100.00000 0 -19750843.959 8012308.762 -13986448.774 10 0 59496 72000.00000 0 -21298310.309 8291254.044 -11307779.284 10 0 59496 72900.00000 0 -22482524.712 8623971.128 -8409221.887 10 0 59496 73800.00000 0 -23282315.237 8956390.572 -5347252.787 10 0 59496 74700.00000 0 -23689601.569 9232536.353 -2181444.368 10 0 59496 75600.00000 0 -23709577.475 9397103.491 1026700.522 10 0 59496 76500.00000 0 -23360354.098 9398010.577 4214945.531 10 0 59496 77400.00000 0 -22672081.759 9188819.302 7321525.280 10 0 59496 78300.00000 0 -21685589.618 8730919.284 10286334.124 10 0 59496 79200.00000 0 -20450602.182 7995386.981 13052076.748 10 0 59496 80100.00000 0 -19023608.751 6964441.511 15565359.319 10 0 59496 81000.00000 0 -17465475.507 5632437.329 17777701.610 10 0 59496 81900.00000 0 -15838899.889 4006352.951 19646452.405 10 0 59496 82800.00000 0 -14205812.590 2105755.777 21135592.431 10 0 59496 83700.00000 0 -12624834.066 -37755.717 22216411.396 10 0 59496 84600.00000 0 -11148889.553 -2381610.012 22868047.953 10 0 59496 85500.00000 0 -9823079.908 -4873778.278 23077883.622 99